Regional Weather Roundup
Issued by NWS

Home | Current Version | Previous Version | Graphics & Text | Print | Product List | Glossary On
Versions: 1 2 3 4 5 6 7 8 9 10 11 12 13 14 15 16 17 18 19 20 21 22 23 24 25 26 27 28 29 30 31 32 33 34 35 36 37 38 39 40 41 42 43 44 45 46 47 48 49 50
717
ASUS45 KABQ 161501
RWRNM
NEW MEXICO REGIONAL WEATHER ROUNDUP
NATIONAL WEATHER SERVICE ALBUQUERQUE NM
800 AM MST MON JAN 16 2017

NOTE: "FAIR" MEANS FEW OR NO CLOUDS BELOW 12,000 FEET AGL WITH NO
       SIGNIFICANT WEATHER OR OBSTRUCTIONS TO VISION.

      THIS PRODUCT IS RELEASED AS TWO VERSIONS.  ONE VERSION NEAR
      THE TOP OF THE HOUR CONTAINING PRELIMINARY DATA FROM ALBUQUERQUE
      AND OTHER STATIONS.  A FINAL VERSION WITH ADDITIONAL DATA IS
      ISSUED ABOUT 10 MINUTES AFTER THE HOUR.

NMZ501-503-504-510>518-161600-
NORTHWEST PLATEAU/NORTHCENTRAL MOUNTAINS

CITY           SKY/WX    TMP DP  RH WIND       PRES   REMARKS
FARMINGTON     MOCLDY    34  32  92 W15       29.92R WCI  24
LOS ALAMOS     CLOUDY    32  32 100 CALM      29.93R
SANTA FE       CLOUDY    33  33 100 CALM      29.92R FOG
TAOS           CLOUDY    32  25  74 CALM      29.92R
ANGEL FIRE     CLOUDY    27  24  89 S5        29.91R WCI  22

$$
NMZ402-403-502-505>509-161600-
WESTCENTRAL MOUNTAINS/SOUTHWEST MOUNTAINS

CITY           SKY/WX    TMP DP  RH WIND       PRES   REMARKS
GALLUP         CLOUDY    35  31  85 SW10      29.97R WCI  27
GRANTS         CLOUDY    33  32  94 SE3       29.98R
SILVER CITY    FAIR      35  34  97 NW6       30.02S WCI  29

$$
NMZ407-409-411-412-161600-
SOUTHERN DESERTS

CITY           SKY/WX    TMP DP  RH WIND       PRES   REMARKS
DEMING         FAIR      36  34  92 SW10      30.03R WCI  28
LAS CRUCES     CLOUDY    34  34  99 CALM      30.03R
HOLLOMAN AFB   FAIR      39  39  99 SE13      30.02R WCI  31
ALAMOGORDO     FAIR      39  37  93 S12       30.00R WCI  32
T OR C         FOG       32  32 100 SW8       29.98R VSB<1/4 WCI  25

$$
NMZ519>523-161600-
CENTRAL VALLEYS/CENTRAL HIGHLANDS

CITY           SKY/WX    TMP DP  RH WIND       PRES   REMARKS
ALBUQUERQUE    MOCLDY    36  35  96 S7        29.96R WCI  30
DOUBLE EAGLE   FOG       34  34 100 CALM      29.96R VSB 1/8
MORIARTY ARPT  FAIR      32  28  88 W6        29.94R WCI  26
CLINES CORNERS CLOUDY    31  30  96 W12       29.92R WCI  22
BELEN          FAIR      34  34 100 SW5       29.96R WCI  30
SOCORRO        FOG       35  35 100 SE3       29.98S VSB 1/4

$$
NMZ524>526-539-540-161600-
SOUTHCENTRAL MOUNTAINS

CITY           SKY/WX    TMP DP  RH WIND       PRES   REMARKS
RUIDOSO        FAIR      32  28  86 NE3       29.99R

$$
NMZ527>531-161600-
NORTHEAST HIGHLANDS/NORTHEAST PLAINS

CITY           SKY/WX    TMP DP  RH WIND       PRES   REMARKS
LAS VEGAS      FOG       26  25  96 CALM      29.90R VSB 1/4
RATON          CLOUDY    35  27  72 N16       29.87R WCI  25
CLAYTON        CLOUDY    32  32 100 N13       29.88R WCI  22

$$
NMZ532>537-161600-
EASTCENTRAL PLAINS

CITY           SKY/WX    TMP DP  RH WIND       PRES   REMARKS
TUCUMCARI      FAIR      30  30 100 CALM      29.92R
CANNON AFB     CLOUDY    32  32 100 NW8       29.93R WCI  25
CLOVIS AIRPORT FAIR      32  28  86 NW7       29.93R WCI  26

$$
NMZ028-029-538-161600-
SOUTHEAST PLAINS

CITY           SKY/WX    TMP DP  RH WIND       PRES   REMARKS
ROSWELL        FOG       34  33  96 SE3       29.96R VSB<1/4
ARTESIA        FOG       30  30 100 E5        29.98R VSB 1/4 WCI  25
CARLSBAD       FOG       32  32 100 VRB6      29.97R VSB 1/4 WCI  26
HOBBS          SUNNY     32  32 100 SW3       29.98R


$$




USA.gov is the U.S. government's official web portal to all federal, state and local government web resources and services.